IRIDIUM 163

Last updated on Tue Sep 22 2026 00:03:21 GMT+0000 (Coordinated Universal Time)

1 43575U 18061G 26264.07451961 .00000093 00000+0 26124-4 0 9993 2 43575 86.4010 16.6207 0002196 94.8312 265.3135 14.34217921427127
UTC large
Height (km)
Speed (km/s)
/
Latitude / Longitude
Inclination (degrees)
Orbital Period (minutes)
Azimuth
Elevation
Range (km)
Doppler Factor

Next 0 passes for location: London (51.5072 / 0.1276)

No passes found over London.
IRIDIUM 163